Wind_Speed
31 24 24 24 25 25 23 23 23 23 22 22 22 22 20 20 19 19 20 22 25 30 30 19 21 23 16 17 18 16 12 8 13 16 22 25 24 27 28 28 29 29 23 24 24 19 20 13 16 20 22 25 24 23
32 27 29 27 26 26 25 24 24 24 23 22 22 22 21 21 21 20 21 23 27 32 28 24 19 19 18 16 19 21 18 13 4 3 6 13 17 17 28 21 26 22 23 25 22 24 21 18 18 18 22 21 20 20
30 29 31 34 27 27 25 25 24 23 23 23 23 23 22 21 22 22 21 22 27 33 27 9 9 16 19 16 18 18 20 21 4 6 9 8 11 13 22 18 18 17 19 12 14 15 14 10 10 18 19 21 23 22
27 29 33 36 34 28 26 26 24 23 24 24 25 24 23 21 21 22 19 21 25 28 30 5 7 6 8 12 19 19 19 22 14 13 12 11 7 13 12 13 14 13 13 14 14 11 12 12 14 19 21 22 21 20
31 29 31 34 36 30 26 26 24 24 25 25 26 25 23 22 21 19 19 19 21 23 24 11 13 8 20 21 19 15 20 20 13 7 7 6 8 9 15 13 10 16 12 9 8 6 4 2 4 9 11 11 11 8
30 30 30 31 34 31 28 24 24 26 27 28 27 25 23 22 20 18 17 15 11 15 17 18 10 12 12 13 18 17 24 14 10 8 5 4 5 11 10 10 7 11 10 10 9 6 5 7 10 9 9 10 11 12
31 32 32 31 31 33 30 25 26 29 30 30 27 24 22 20 18 15 15 17 14 11 13 14 2 1 8 11 7 12 18 8 5 7 4 3 2 8 6 9 11 12 14 15 14 11 9 14 14 13 10 8 6 5
32 34 28 29 32 32 30 27 29 30 30 27 24 20 18 17 15 13 13 13 11 11 11 7 3 2 6 12 10 1 8 4 7 5 1 1 5 7 5 16 16 15 13 10 9 10 10 16 18 14 11 8 6 8
30 29 28 30 31 31 28 28 27 27 25 22 19 16 13 12 9 9 11 14 12 12 5 7 7 3 5 12 16 14 8 3 2 4 6 2 3 5 10 16 14 12 12 12 11 9 7 10 18 16 11 8 10 12
29 28 27 31 32 31 26 25 24 23 22 19 15 11 9 5 7 9 15 14 8 15 13 14 11 9 3 9 14 17 12 5 3 8 6 7 5 9 10 14 16 15 16 14 14 15 15 16 15 15 13 11 15 15
31 29 30 28 30 26 24 22 21 20 18 16 14 10 10 11 10 13 10 5 4 4 6 4 1 3 2 9 13 15 9 10 8 5 7 4 6 10 12 10 10 13 16 16 16 17 18 19 18 17 14 13 14 19
27 26 25 28 27 22 21 19 19 18 17 15 12 10 9 7 5 6 6 5 4 3 3 2 3 9 5 6 8 9 8 7 2 7 5 4 6 6 10 11 11 12 12 12 14 19 18 18 18 20 20 20 20 22
22 25 24 27 23 21 19 17 17 16 15 13 10 6 4 2 4 5 5 3 0 3 4 5 3 7 11 3 5 2 2 4 6 5 4 3 5 6 7 5 6 8 10 11 12 14 17 18 17 18 18 18 19 18
21 22 26 26 21 20 17 15 15 14 13 11 6 5 3 3 4 11 17 10 8 6 7 4 3 8 12 8 7 5 3 6 5 6 5 5 6 4 3 5 8 12 14 16 17 18 20 20 17 18 18 17 15 15
22 23 24 23 18 18 15 14 13 12 10 8 5 4 3 6 10 17 11 7 14 2 2 1 5 7 10 7 6 3 4 3 3 4 7 7 6 2 6 9 12 16 18 18 16 13 13 13 14 15 14 14 14 15
19 22 21 17 17 17 13 12 12 11 10 8 7 6 7 8 9 13 2 15 18 7 1 3 6 4 5 2 5 4 5 3 5 11 8 2 2 5 8 9 11 10 11 16 18 18 17 16 15 14 14 15 17 21
20 20 16 13 16 15 12 12 12 11 7 6 5 6 6 6 9 15 6 10 18 8 3 4 5 5 5 4 5 5 4 6 8 7 2 4 5 6 4 7 9 5 4 2 10 11 11 11 11 14 17 18 22 22
17 18 14 13 15 13 12 11 11 8 9 10 10 8 10 9 11 4 9 10 12 6 7 5 5 3 4 5 5 7 8 6 3 4 6 8 7 4 3 5 6 7 8 4 4 5 8 10 11 12 15 15 16 18
18 15 13 14 13 11 11 11 10 9 9 9 9 9 7 6 2 10 9 6 9 9 9 8 4 8 4 4 6 8 7 5 4 5 6 7 5 4 1 3 2 3 4 4 3 2 1 3 6 10 13 15 17 20
15 13 14 13 11 9 8 8 8 8 7 8 6 7 6 4 5 8 9 8 7 6 9 8 6 6 7 7 6 5 4 4 4 3 2 5 5 2 1 2 2 1 5 4 4 5 9 10 12 15 17 18 15 16
12 12 12 11 9 9 9 8 8 7 7 6 6 5 5 6 8 9 8 7 9 9 9 11 5 5 6 5 3 2 3 6 7 5 3 6 3 4 5 5 6 3 1 3 5 10 12 15 19 20 20 14 14 16
11 11 10 9 9 10 11 12 11 8 7 7 6 4 3 4 6 10 11 9 6 13 13 16 13 10 7 4 2 3 4 5 4 5 5 2 3 5 4 4 5 5 3 7 10 14 19 22 24 19 16 18 18 17
11 10 9 9 8 7 8 10 10 9 6 4 4 3 3 4 6 8 11 11 6 11 15 16 17 15 11 9 6 3 6 5 4 1 8 4 4 4 2 3 3 3 7 12 16 20 24 20 17 19 15 12 10 6
10 9 9 7 9 8 8 7 7 7 7 7 5 4 5 5 6 7 8 6 7 8 8 9 8 13 11 6 6 5 7 6 5 5 1 1 1 2 2 1 5 8 13 17 19 17 10 13 10 7 10 12 15 14
9 8 7 10 8 9 10 9 8 7 5 6 7 5 6 5 3 3 6 10 11 11 10 11 10 10 11 11 12 10 8 7 7 7 7 5 4 2 2 5 9 15 17 11 5 7 8 8 7 10 10 9 9 10
9 8 8 8 9 9 8 6 7 7 6 6 6 6 8 6 5 4 5 8 9 9 9 11 12 11 10 11 11 14 14 11 7 7 9 8 6 3 4 7 12 14 8 8 7 6 8 8 7 7 5 4 3 7
10 10 11 11 8 9 9 10 9 9 7 6 6 7 6 3 4 4 6 8 12 11 10 11 12 13 11 11 13 15 13 12 11 10 8 9 8 5 3 6 12 9 7 6 5 5 7 9 10 11 9 6 6 8
14 12 12 11 12 11 10 8 8 8 7 8 10 6 5 4 4 5 9 13 10 8 9 10 11 12 11 10 10 13 14 13 11 10 8 13 11 4 3 6 10 5 4 3 4 6 8 10 10 11 13 14 14 13
13 12 13 13 14 16 15 13 9 9 13 11 10 7 6 4 3 2 0 13 10 7 7 4 7 10 10 9 10 10 11 10 10 9 9 10 12 8 4 7 7 1 0 3 5 6 8 9 10 10 10 10 9 8
13 11 13 14 14 15 12 12 9 11 16 16 15 13 11 10 7 7 7 6 13 7 4 4 6 8 8 7 9 8 8 10 14 15 9 9 11 7 4 6 2 3 3 5 7 8 8 8 8 8 7 6 5 5
11 13 12 11 10 9 12 13 14 15 19 18 18 16 14 13 8 12 11 5 2 2 4 5 6 6 9 10 10 12 12 12 13 17 18 13 9 4 2 2 5 6 6 7 8 7 7 7 7 6 5 4 3 2
7 8 9 8 6 10 12 13 12 12 13 16 18 16 14 13 12 8 5 4 3 2 4 5 5 8 12 12 15 15 14 19 21 17 13 8 4 3 4 6 8 9 9 9 7 6 5 6 6 6 6 4 2 1
6 10 11 12 10 10 10 10 8 8 9 10 11 13 15 16 16 13 10 8 6 5 5 4 6 13 13 14 17 17 18 21 14 11 8 5 3 4 7 10 10 9 8 8 6 5 5 4 4 4 2 3 5 5
Wind_Direction
347 338 337 336 333 333 331 330 329 329 329 328 324 320 317 312 307 300 297 299 301 300 306 285 274 244 244 252 266 257 247 232 231 233 224 217 222 221 219 214 208 200 198 207 222 225 236 218 227 220 232 236 243 249
339 340 342 332 331 332 329 330 328 327 326 325 321 318 316 310 304 299 292 293 299 299 307 290 254 232 253 253 257 256 230 207 195 228 232 230 209 222 206 201 203 210 215 212 211 227 234 239 237 243 243 239 244 252
339 334 331 340 331 332 328 327 326 325 324 322 320 316 314 309 303 299 296 293 296 302 313 296 253 245 269 259 241 235 226 230 218 282 292 230 227 214 208 211 190 197 200 195 195 212 228 236 238 230 236 242 246 250
331 332 334 333 334 329 325 323 322 322 322 321 319 315 311 306 301 299 298 296 297 298 306 272 207 260 242 234 228 229 241 235 270 295 269 239 231 214 209 198 197 201 207 218 229 232 241 246 243 244 245 244 243 240
321 322 325 329 332 328 323 321 319 319 319 319 316 312 307 303 299 296 296 298 296 294 287 296 302 273 243 236 226 226 226 253 285 297 250 275 239 179 191 184 180 170 167 174 172 179 182 215 211 210 208 220 220 209
324 322 321 324 332 331 324 320 317 317 316 315 311 307 304 298 297 295 294 298 304 323 308 315 299 257 263 233 210 253 244 251 268 282 272 217 142 139 171 168 167 188 196 204 206 205 196 191 186 184 181 172 165 160
319 319 317 322 328 334 326 320 319 318 315 312 307 303 298 293 293 287 279 296 296 307 315 322 37 314 161 186 217 221 226 214 259 256 221 222 157 125 143 158 162 198 208 211 210 206 188 181 194 190 183 183 174 172
312 315 319 316 325 325 323 321 324 322 320 318 312 305 298 294 292 280 274 283 271 286 284 288 291 211 180 188 188 284 170 221 193 182 189 178 166 134 135 159 165 169 171 181 198 213 214 207 207 193 191 210 235 242
307 313 315 315 324 325 320 323 328 328 330 328 322 314 305 298 288 280 276 267 250 235 261 269 300 216 97 192 201 201 154 203 224 218 241 275 230 178 195 189 194 202 203 205 207 205 223 212 211 211 221 228 201 206
300 307 310 317 319 320 318 324 330 331 334 332 328 324 318 305 283 275 300 283 264 236 255 267 288 298 158 161 197 198 227 208 274 229 238 252 241 235 223 227 233 234 234 230 227 228 234 227 218 212 211 207 206 217
303 301 304 316 318 314 317 323 330 332 334 330 330 324 307 292 287 292 283 228 214 217 252 272 249 203 131 168 166 174 177 197 219 240 167 189 198 225 216 213 215 224 227 227 233 232 230 230 231 241 232 227 237 244
291 299 300 312 316 309 314 319 326 331 332 333 325 318 305 296 272 269 259 196 188 198 259 265 225 198 206 179 157 144 180 169 166 181 174 202 225 208 212 221 234 243 244 240 230 229 232 235 240 243 244 257 257 253
283 291 295 310 314 306 311 314 319 326 327 328 324 309 301 275 274 292 307 196 358 143 219 259 229 157 211 213 202 181 130 179 154 162 184 181 191 182 166 191 218 233 240 244 248 254 259 258 257 258 259 254 247 249
279 287 301 311 306 303 307 307 313 318 320 324 310 281 272 276 282 324 321 285 170 211 230 236 215 173 182 196 185 176 187 155 167 191 152 170 165 180 256 277 274 271 270 265 262 258 253 250 250 253 250 243 240 250
285 280 294 304 296 300 302 301 305 307 309 305 280 257 251 270 314 321 325 180 180 224 256 219 179 190 185 188 162 126 186 158 157 163 153 163 171 256 319 290 281 267 254 246 241 237 232 226 224 230 233 241 251 261
279 280 298 293 293 296 296 294 299 296 294 276 245 249 276 294 302 313 299 175 186 219 282 155 147 166 199 176 171 182 166 135 154 151 149 146 311 314 331 323 324 309 271 243 235 227 230 233 238 245 254 261 268 271
268 277 291 284 287 287 287 289 287 284 261 247 269 279 275 287 303 309 212 159 180 222 207 158 186 174 176 177 185 176 188 163 159 166 223 295 311 326 338 348 355 20 30 157 200 199 214 231 244 250 256 265 272 272
264 285 279 282 282 277 277 279 272 266 266 273 272 262 270 286 303 205 155 182 207 221 212 192 159 171 180 179 178 177 165 161 196 257 271 285 284 261 266 348 351 53 59 123 154 202 217 238 247 255 263 263 266 263
266 276 276 281 274 269 276 276 258 265 273 271 270 268 265 287 283 189 149 170 213 220 209 196 197 203 193 127 143 154 164 188 236 271 287 270 222 192 291 320 202 29 24 46 60 49 349 294 280 274 276 278 270 271
272 266 274 275 265 263 261 253 257 264 268 271 266 260 253 257 235 188 174 185 210 218 208 207 197 160 219 220 203 187 190 248 261 249 148 143 151 160 300 236 229 357 21 20 14 338 325 318 310 307 306 304 292 281
254 258 265 265 262 254 245 250 253 267 267 271 249 247 257 257 224 213 216 236 232 224 206 192 174 193 205 214 211 230 232 218 183 157 159 173 223 300 288 257 236 221 13 329 309 312 307 305 303 304 306 296 284 279
247 253 254 254 253 253 251 246 247 256 254 256 249 259 252 219 210 209 216 237 259 224 205 189 191 207 199 223 238 205 194 190 228 280 270 130 275 258 239 230 214 217 258 290 303 305 310 312 317 316 308 298 291 282
246 246 247 246 244 244 250 242 241 240 229 231 216 196 171 170 189 194 213 236 252 222 199 191 199 205 209 208 196 207 209 203 213 307 100 87 71 96 150 224 237 341 305 303 308 311 317 323 321 315 313 311 302 295
240 242 249 237 219 225 238 234 230 221 223 213 204 187 187 193 194 192 205 218 205 185 193 197 178 177 211 202 200 191 184 207 240 122 47 322 102 124 138 339 325 323 319 311 310 320 334 334 348 59 61 68 81 86
231 232 223 228 222 226 229 229 216 210 210 205 200 193 206 211 223 215 211 211 201 195 191 190 192 200 204 210 212 217 222 236 247 252 256 269 233 280 305 329 335 333 333 341 19 2 9 10 94 84 95 83 67 84
223 224 218 213 211 213 205 197 205 204 200 196 199 198 206 224 229 233 208 205 208 207 208 203 201 204 204 207 212 222 229 230 236 248 262 240 217 210 277 318 331 341 353 357 360 24 34 54 103 98 95 71 88 84
221 224 221 217 212 212 206 201 198 186 191 199 191 202 192 214 226 218 201 212 199 200 203 206 209 214 221 230 224 219 217 224 240 246 261 219 211 214 259 318 333 338 341 351 12 49 54 66 79 97 105 104 103 103
229 226 222 222 218 212 197 197 199 197 201 204 192 196 196 210 227 206 209 203 204 215 199 203 209 209 212 223 221 218 225 232 239 246 238 201 188 216 264 314 330 337 1 21 84 79 87 81 81 87 93 93 96 101
234 231 224 221 217 215 211 202 204 210 202 199 200 212 209 212 307 259 227 190 185 191 202 210 213 210 214 230 226 226 225 226 227 221 192 195 209 216 243 310 323 312 18 97 102 94 87 89 89 91 96 99 98 95
226 222 213 215 218 221 219 212 210 207 206 208 208 216 237 252 266 220 201 192 188 188 195 213 214 218 217 209 203 204 184 168 157 151 161 183 170 190 250 297 284 170 125 107 104 104 102 100 99 97 98 99 92 84
210 208 209 212 217 215 209 208 211 213 213 214 221 225 234 247 243 179 171 166 185 215 209 210 217 224 197 189 185 166 160 163 167 161 156 165 179 199 242 205 162 146 133 126 118 109 105 100 96 94 92 87 79 76
202 204 204 205 198 205 209 209 214 226 231 233 235 237 224 226 225 227 215 258 262 231 216 215 235 205 181 181 176 174 171 164 159 163 161 164 187 216 198 170 154 143 134 125 117 113 107 102 98 93 87 73 34 9
200 202 198 198 196 200 204 205 223 242 247 249 240 234 225 225 229 226 213 236 239 232 219 220 184 173 176 168 169 169 166 166 164 162 162 173 180 171 156 149 144 136 131 129 126 120 113 108 112 136 147 27 29 19
Height
3180 3175 3170 3166 3162 3158 3154 3149 3146 3142 3139 3135 3132 3128 3125 3122 3119 3117 3115 3112 3109 3103 3101 3100 3099 3099 3101 3103 3104 3105 3108 3107 3110 3111 3112 3110 3111 3112 3113 3116 3121 3124 3127 3130 3134 3134 3135 3135 3138 3142 3144 3144 3148 3150
3177 3172 3168 3163 3158 3154 3150 3146 3141 3138 3134 3131 3128 3124 3121 3117 3114 3111 3110 3106 3102 3097 3095 3092 3090 3092 3095 3096 3097 3098 3101 3101 3104 3107 3106 3104 3105 3107 3109 3112 3115 3121 3122 3123 3128 3130 3129 3131 3134 3136 3137 3139 3141 3144
3173 3168 3164 3159 3153 3149 3145 3141 3137 3134 3130 3126 3123 3119 3115 3112 3109 3106 3104 3101 3096 3090 3086 3083 3086 3088 3088 3089 3092 3092 3095 3097 3098 3103 3101 3101 3101 3103 3104 3105 3109 3112 3115 3119 3122 3123 3124 3127 3129 3131 3133 3135 3136 3138
3169 3164 3159 3154 3149 3143 3139 3135 3132 3129 3125 3121 3117 3113 3110 3107 3104 3101 3099 3096 3093 3088 3082 3083 3083 3085 3085 3084 3084 3088 3085 3085 3092 3095 3094 3095 3100 3099 3100 3100 3107 3109 3112 3116 3118 3120 3121 3123 3125 3127 3128 3130 3130 3132
3164 3159 3155 3149 3144 3139 3134 3130 3127 3123 3119 3116 3112 3107 3104 3101 3098 3096 3094 3092 3088 3089 3082 3078 3079 3079 3077 3077 3079 3082 3080 3083 3088 3089 3093 3094 3095 3095 3096 3100 3104 3106 3109 3114 3116 3118 3120 3121 3122 3123 3124 3125 3127 3128
3157 3153 3149 3144 3139 3134 3129 3124 3121 3117 3112 3108 3105 3101 3098 3095 3092 3090 3089 3087 3085 3082 3079 3075 3075 3072 3070 3072 3076 3078 3075 3082 3084 3086 3088 3090 3091 3092 3097 3099 3100 3103 3106 3110 3113 3116 3118 3120 3122 3123 3125 3125 3126 3127
3151 3147 3142 3138 3133 3129 3124 3119 3115 3110 3105 3100 3097 3094 3091 3089 3087 3086 3087 3085 3082 3080 3079 3074 3071 3072 3071 3072 3073 3076 3075 3078 3081 3085 3086 3088 3090 3089 3095 3097 3099 3103 3106 3109 3112 3115 3118 3120 3121 3123 3124 3125 3126 3127
3144 3141 3136 3132 3128 3122 3118 3113 3109 3103 3097 3092 3089 3087 3085 3083 3082 3081 3081 3080 3079 3078 3077 3075 3072 3073 3071 3073 3074 3069 3073 3077 3081 3083 3086 3086 3089 3090 3096 3097 3100 3102 3105 3108 3110 3113 3115 3117 3119 3121 3123 3124 3125 3126
3138 3134 3130 3126 3121 3117 3112 3107 3103 3097 3092 3088 3084 3082 3080 3079 3078 3078 3077 3076 3075 3078 3075 3074 3072 3070 3072 3074 3077 3078 3071 3079 3082 3083 3085 3089 3091 3094 3095 3097 3099 3102 3104 3106 3109 3111 3113 3115 3117 3118 3120 3122 3123 3124
3130 3127 3124 3119 3115 3111 3107 3102 3098 3093 3089 3084 3082 3080 3077 3077 3076 3076 3073 3070 3070 3072 3071 3069 3070 3070 3073 3072 3074 3080 3077 3080 3083 3085 3086 3088 3091 3092 3093 3095 3097 3099 3101 3104 3106 3108 3111 3112 3114 3116 3117 3118 3119 3121
3123 3120 3118 3113 3109 3105 3102 3097 3094 3090 3086 3083 3080 3078 3077 3075 3074 3073 3070 3068 3069 3069 3069 3069 3069 3069 3072 3073 3074 3077 3080 3082 3082 3084 3086 3088 3091 3090 3092 3094 3095 3097 3098 3100 3102 3104 3106 3108 3110 3112 3113 3115 3116 3117
3115 3113 3110 3107 3103 3100 3097 3093 3090 3086 3082 3080 3078 3076 3075 3073 3073 3072 3068 3065 3067 3068 3067 3068 3069 3069 3070 3072 3074 3076 3078 3080 3080 3083 3086 3087 3088 3088 3090 3091 3093 3094 3095 3097 3098 3100 3102 3104 3106 3107 3108 3109 3111 3112
3108 3105 3103 3100 3097 3095 3092 3089 3086 3083 3081 3078 3077 3074 3073 3074 3073 3070 3065 3065 3065 3065 3066 3066 3068 3068 3070 3072 3073 3075 3078 3079 3081 3084 3084 3086 3087 3087 3089 3090 3091 3092 3093 3094 3095 3097 3098 3099 3101 3102 3103 3104 3105 3107
3100 3098 3096 3094 3091 3089 3087 3085 3082 3080 3078 3076 3075 3074 3073 3072 3071 3069 3066 3064 3065 3067 3067 3067 3067 3069 3071 3073 3072 3076 3078 3079 3082 3083 3084 3085 3086 3088 3089 3089 3090 3090 3090 3090 3090 3091 3093 3094 3096 3098 3099 3100 3100 3101
3091 3090 3090 3087 3085 3084 3082 3081 3079 3077 3076 3075 3074 3072 3071 3071 3069 3066 3062 3063 3064 3066 3067 3068 3069 3070 3071 3073 3073 3076 3078 3078 3080 3082 3083 3084 3086 3087 3087 3086 3085 3084 3084 3084 3086 3087 3088 3090 3091 3093 3094 3095 3096 3097
3084 3083 3083 3081 3079 3078 3077 3076 3075 3073 3072 3072 3070 3069 3068 3068 3068 3064 3063 3062 3064 3066 3067 3068 3069 3070 3071 3072 3074 3076 3077 3078 3080 3081 3083 3084 3084 3084 3083 3082 3080 3077 3075 3076 3079 3082 3084 3086 3087 3089 3090 3090 3091 3091
3077 3076 3076 3075 3074 3073 3072 3072 3071 3070 3068 3067 3066 3066 3065 3065 3064 3063 3062 3062 3064 3066 3067 3067 3069 3069 3071 3073 3075 3076 3077 3078 3079 3080 3082 3082 3082 3082 3082 3080 3078 3076 3075 3074 3076 3078 3080 3082 3084 3085 3085 3086 3086 3085
3070 3070 3070 3069 3069 3068 3067 3067 3067 3065 3063 3063 3063 3064 3062 3062 3061 3061 3061 3062 3064 3066 3067 3068 3069 3070 3071 3072 3073 3074 3076 3077 3078 3079 3080 3080 3080 3080 3080 3080 3079 3077 3076 3076 3076 3076 3077 3079 3080 3080 3080 3080 3080 3079
3064 3064 3064 3064 3064 3063 3063 3062 3062 3060 3059 3059 3059 3059 3060 3059 3059 3059 3060 3062 3063 3065 3067 3068 3069 3069 3070 3071 3072 3074 3075 3076 3077 3077 3078 3077 3077 3079 3079 3079 3079 3079 3078 3078 3078 3077 3077 3078 3078 3078 3077 3076 3075 3072
3058 3058 3058 3059 3059 3059 3059 3059 3058 3057 3056 3056 3056 3056 3057 3058 3058 3059 3060 3061 3062 3063 3065 3067 3068 3069 3071 3071 3073 3074 3074 3075 3076 3076 3076 3077 3078 3079 3079 3078 3079 3079 3078 3078 3078 3077 3077 3076 3074 3072 3070 3068 3067 3065
3053 3054 3054 3054 3054 3054 3055 3054 3054 3054 3053 3052 3053 3053 3054 3055 3055 3057 3059 3060 3061 3062 3064 3065 3068 3069 3070 3071 3071 3072 3072 3073 3074 3076 3076 3077 3078 3079 3078 3078 3078 3079 3079 3079 3079 3077 3075 3074 3071 3069 3066 3064 3062 3061
3049 3049 3049 3049 3050 3050 3050 3050 3050 3050 3051 3051 3051 3051 3052 3053 3054 3055 3057 3058 3059 3060 3061 3063 3065 3067 3069 3070 3071 3071 3073 3073 3074 3075 3075 3075 3076 3076 3077 3077 3077 3077 3078 3077 3076 3074 3072 3068 3065 3062 3059 3057 3055 3053
3045 3046 3046 3046 3047 3046 3047 3046 3046 3047 3048 3049 3049 3050 3051 3051 3052 3053 3054 3056 3057 3056 3058 3061 3062 3065 3067 3068 3070 3071 3072 3073 3074 3073 3075 3076 3076 3076 3076 3076 3075 3076 3077 3075 3073 3070 3067 3063 3060 3056 3053 3051 3048 3047
3041 3042 3042 3042 3041 3041 3042 3042 3043 3044 3045 3047 3048 3049 3050 3050 3051 3051 3052 3053 3054 3055 3056 3058 3060 3063 3066 3067 3070 3070 3072 3073 3073 3073 3076 3077 3078 3078 3078 3078 3078 3077 3075 3072 3068 3066 3063 3061 3057 3055 3054 3053 3051 3050
3039 3040 3039 3037 3037 3038 3039 3040 3041 3042 3043 3045 3046 3048 3049 3049 3050 3050 3051 3051 3052 3053 3055 3057 3059 3061 3064 3067 3068 3069 3071 3072 3073 3075 3075 3076 3077 3078 3078 3077 3076 3074 3071 3067 3066 3065 3063 3060 3059 3058 3058 3058 3058 3057
3033 3034 3034 3032 3034 3036 3036 3038 3039 3041 3042 3043 3045 3045 3046 3047 3048 3048 3048 3049 3051 3052 3053 3055 3057 3059 3061 3063 3065 3067 3069 3070 3072 3073 3073 3075 3076 3078 3077 3076 3075 3073 3071 3069 3068 3066 3064 3062 3061 3061 3061 3061 3061 3061
3028 3028 3028 3029 3031 3032 3034 3035 3037 3039 3041 3042 3044 3045 3045 3046 3045 3046 3046 3047 3048 3049 3051 3053 3055 3057 3058 3060 3061 3063 3066 3068 3069 3071 3071 3073 3074 3076 3076 3076 3074 3072 3071 3070 3069 3067 3066 3064 3063 3062 3062 3063 3063 3063
3023 3024 3025 3027 3028 3030 3031 3034 3036 3038 3040 3040 3041 3042 3043 3043 3044 3044 3044 3045 3047 3048 3049 3051 3052 3054 3056 3057 3059 3061 3063 3065 3066 3068 3069 3071 3073 3074 3075 3074 3073 3072 3071 3071 3070 3069 3068 3067 3067 3066 3066 3067 3067 3067
3018 3020 3022 3023 3025 3026 3028 3031 3034 3036 3036 3037 3039 3041 3041 3042 3042 3043 3043 3044 3046 3047 3049 3050 3051 3052 3054 3055 3057 3058 3059 3061 3063 3065 3067 3071 3072 3074 3074 3074 3073 3073 3072 3072 3071 3071 3071 3070 3070 3070 3070 3070 3071 3071
3014 3015 3017 3019 3021 3023 3026 3028 3030 3033 3033 3035 3036 3038 3039 3040 3042 3042 3043 3043 3045 3047 3048 3049 3049 3051 3052 3054 3055 3057 3058 3060 3061 3064 3068 3071 3072 3073 3073 3073 3073 3073 3073 3073 3073 3073 3073 3073 3073 3073 3073 3073 3073 3073
3010 3012 3015 3016 3019 3021 3023 3025 3027 3028 3030 3032 3033 3035 3037 3038 3040 3041 3042 3043 3044 3046 3047 3048 3048 3049 3051 3052 3054 3057 3059 3061 3062 3064 3066 3070 3071 3072 3072 3072 3073 3074 3074 3074 3074 3075 3075 3075 3075 3075 3075 3075 3075 3075
3009 3011 3013 3015 3017 3019 3020 3022 3024 3026 3027 3028 3030 3032 3034 3035 3037 3039 3040 3041 3043 3044 3044 3045 3047 3047 3049 3051 3054 3057 3058 3061 3064 3066 3068 3070 3071 3072 3072 3073 3074 3074 3075 3075 3075 3076 3076 3076 3077 3077 3077 3077 3076 3076
3007 3009 3010 3012 3015 3017 3019 3021 3022 3023 3024 3024 3026 3028 3030 3032 3034 3037 3038 3039 3041 3042 3042 3043 3045 3047 3049 3051 3054 3057 3060 3063 3066 3068 3069 3070 3071 3072 3072 3073 3075 3075 3076 3076 3077 3078 3078 3078 3078 3078 3078 3078 3077 3076